Flag for Australia Weather past 2 weeks in Geraldton, Western Australia, Australia

Now
65 °F

Scattered clouds.


Feels Like: 65 °F
Forecast: 56 / 69 °F
Wind: 6 mph from West

Location: Geraldton Airport

Current Time: Aug 21, 2014 at 8:50:10 PM

Latest Report: Aug 21, 2014 at 6:00 PM


Visibility: 16 mi

Pressure: 29.99 "Hg

Humidity: 76%

Dew point: 58 °F

Location of GeraldtonLocation

Historic Weather in Geraldton — Graph

°F

Geraldton temperature yesterday

Maximum temperature yesterday: 71 °F (at 2:00 PM)
Minimum temperature yesterday: 50 °F (at 6:00 AM)
Average temperature yesterday: 60 °F

Past Weeks' High & Low Weather Summary

 TemperatureHumidityPressure
High83 °F (Aug 11, 2:00 PM)97% (Aug 20, 2:00 AM)30.33 "Hg (Aug 20, 2:00 AM)
Low45 °F (Aug 16, 6:00 AM)12% (Aug 15, 12:00 PM)29.88 "Hg (Aug 21, 5:00 AM)
Average64 °F64%30.15 "Hg
* Reported Aug 6 6:00 PM — Aug 21 6:00 PM, Geraldton, Weather by CustomWeather, © 2014

Note: Actual official high and low records may vary slightly from our data, if they occured in-between our weather recording intervals... More about our weather records

Advertising

Geraldton weather history for previous 24 hours

 ConditionsComfort  
Time TempWeatherWind HumidityBarometerVisibility
6:00 PM
Aug 21
65 °FScattered clouds.6 mph76%29.99 "Hg16 mi
5:00 PM68 °FMild.8 mph69%29.97 "HgN/A
3:00 PM71 °FScattered clouds.10 mph63%29.95 "Hg16 mi
2:00 PM70 °FMild.10 mph64%29.94 "HgN/A
12:00 PM70 °FPartly sunny.15 mph71%29.97 "Hg12 mi
11:00 AM70 °FMild.12 mph73%29.97 "HgN/A
9:00 AM64 °FRain showers. Overcast.15 mph93%29.96 "Hg12 mi
8:00 AM65 °FMild.8 mph96%29.94 "HgN/A
6:00 AM63 °FOvercast.14 mph90%29.90 "Hg9 mi
5:00 AM61 °FCool.12 mph83%29.88 "HgN/A
3:00 AM60 °FOvercast.10 mph88%29.90 "HgN/A
2:00 AM60 °FCool.9 mph89%29.92 "HgN/A
12:00 AM62 °FOvercast.10 mph81%29.96 "HgN/A
11:00 PM
Aug 20
60 °FCool.7 mph84%29.98 "HgN/A
9:00 PM60 °FOvercast.7 mph87%30.00 "Hg19 mi
8:00 PM62 °FCool.6 mph81%29.99 "HgN/A
Weather by CustomWeather, © 2014

See weather overviewHow to use our weather pages